User: anonymous   Login
Location: Unspecified
(0.0000°N, 0.0000°E)
Time: 21:02:34
(UTC+00:00)
Language:

USA 229 - Orbit

View from above orbital plane
View from above orbital plane
View from above satellite
View from above satellite

Ground track
Ground track

The orbit data is extracted from the following two-line orbital elements,

1 37386U 11014A   14350.66827146 0.00000000  00000-0  00000-0 0    00
2 37386  63.4395 180.2640 0016004 158.8239 201.1761 13.40663365    02
Epoch (UTC): 16 December 2014 16:02:18
Eccentricity: 0.0016004
inclination: 63.4395°
perigee height: 1095 km
apogee height: 1119 km
right ascension of ascending node: 180.2640°
argument of perigee: 158.8239°
revolutions per day: 13.40663365
mean anomaly at epoch: 201.1761°
orbit number at epoch: 0

The dashed part of the orbit path shows where the satellite is in the earth's shadow,  

DLR